Content
SEND FEEDBACK

Daily
Averages
Monthly
Summary
United States of America

ACHANG BAY, GUAM


Home > North America > United States > Guam
Elevation: 30 feet     Latitude: 13 16N     Longitude: 144 45E

WEATHER
 
SELECT A DAY
Number of Records: 342,166;   Date Range: 1/1/95 - 8/12/14
 
SHARE

PRINT THIS DATA

[ ← Previous Day ]
WEATHER ALMANAC - MAY 22, 2013
[ Next Day → ]
[ °C ]   °F
Weather ElementAverageHighLow
Temperature80.8 °F86.5 °F (1:55 pm)76.3 °F (7:55 am)
Dewpoint75.2 °F77 °F (6:36 am)73.2 °F (4:55 am)
Humidity83.7 %94 % (6:36 am)67 % (11:55 am)
Barometer29.88 in29.91 in (7:40 am)29.82 in (2:55 pm)
Wind Speed9.1 mph17.3 mph (10:08 pm)
Wind Gust19.6 mph (2:55 pm)
Weather ElementAverage
Visibility8.7 mi
Wind DirectionENE (66.2 °)

Weather ElementTotal
Precipitation0.29 in
Cooling Degree Days16.4 (Base 65)
Growing Degree Days31.4 (Base 50)
Averaged from 74 records on May 22, 2013
WEATHER CONDITIONS BREAKOUT
WIND DIRECTION BREAKOUT
WEATHER BY HOUR - MAY 22, 2013
[ °C ]   °F
Local TimeTemperatureDewpointHumidityBarometerVisibilityWind DirectionWind SpeedGust SpeedPrecipitationEventsConditions
1:55 AM79.7 °F75.7 °F88 %29.87 in10.0 miNE (50°)9.2 mphScattered Clouds
2:55 AM80.2 °F74.7 °F83 %29.87 in10.0 miNE (50°)8.1 mphScattered Clouds
3:15 AM80.6 °F75.2 °F84 %29.86 in10.0 miNE (40°)10.4 mphMostly Cloudy
3:27 AM80.6 °F75.2 °F84 %29.86 in10.0 miNE (50°)8.1 mphScattered Clouds
3:55 AM80.2 °F74.8 °F84 %29.86 in10.0 miENE (70°)10.4 mphMostly Cloudy
4:55 AM76.8 °F73.2 °F89 %29.87 in10.0 miNNE (20°)6.9 mphPartly Cloudy
5:55 AM77.5 °F74.8 °F91 %29.87 in10.0 miNNE (30°)6.9 mphClear
6:25 AM78.8 °F75.2 °F89 %29.88 in9.0 miNNE (20°)4.6 mphRainLight Rain
6:36 AM78.8 °F77.0 °F94 %29.88 in10.0 miNNE (30°)4.6 mphPartly Cloudy
6:55 AM79.0 °F74.7 °F87 %29.89 in10.0 miNNE (30°)9.2 mph0.00 inScattered Clouds
7:04 AM78.8 °F75.2 °F89 %29.90 in10.0 miNorth (360°)10.4 mphMostly Cloudy
7:06 AM78.8 °F75.2 °F89 %29.90 in10.0 miNorth (10°)10.4 mphLight Drizzle
7:11 AM77.0 °F75.2 °F94 %29.90 in2.5 miNorth (10°)10.4 mphRainHeavy Rain
7:12 AM77.0 °F75.2 °F94 %29.90 in1.8 miNNE (20°)10.4 mphRainHeavy Rain
7:13 AM77.0 °F75.2 °F94 %29.90 in1.2 miNNE (30°)9.2 mphRainHeavy Rain
7:14 AM77.0 °F75.2 °F94 %29.90 in1.0 miNNE (30°)6.9 mphRainHeavy Rain
7:15 AM77.0 °F75.2 °F94 %29.90 in0.8 miNE (50°)5.8 mphRainHeavy Rain
7:22 AM77.0 °F75.2 °F94 %29.90 in1.0 miNW (310°)4.6 mphRainLight Rain
7:23 AM77.0 °F75.2 °F94 %29.90 in1.2 miNW (310°)3.5 mphRainLight Rain
7:24 AM77.0 °F75.2 °F94 %29.90 in1.8 miCalmRainLight Rain
7:25 AM77.0 °F75.2 °F94 %29.90 in3.0 miCalmRainLight Rain
7:27 AM77.0 °F73.4 °F89 %29.90 in8.0 miCalmOvercast
7:40 AM77.0 °F75.2 °F94 %29.91 in10.0 miSSE (150°)3.5 mphOvercast
7:42 AM77.0 °F75.2 °F94 %29.91 in5.0 miESE (110°)6.9 mphRainLight Rain
7:48 AM77.0 °F73.4 °F89 %29.91 in4.0 miCalmRainLight Rain
7:52 AM77.0 °F73.4 °F89 %29.91 in8.0 miCalmOvercast
7:55 AM76.3 °F73.2 °F90 %29.91 in10.0 miCalm0.22 inOvercast
7:57 AM77.0 °F73.4 °F89 %29.91 in10.0 miCalmOvercast
8:07 AM77.0 °F75.2 °F94 %29.91 in10.0 miEast (100°)3.5 mphOvercast
8:18 AM80.6 °F77.0 °F89 %29.91 in10.0 miENE (70°)5.8 mphMostly Cloudy
8:28 AM80.6 °F77.0 °F89 %29.91 in10.0 miNE (50°)10.4 mphMostly Cloudy
8:55 AM82.0 °F77.0 °F85 %29.91 in10.0 miNNE (30°)9.2 mphMostly Cloudy
8:58 AM82.4 °F77.0 °F84 %29.91 in10.0 miNE (40°)8.1 mphMostly Cloudy
9:07 AM82.4 °F77.0 °F84 %29.91 in10.0 miNE (50°)10.4 mphScattered Clouds
9:11 AM82.4 °F77.0 °F84 %29.91 in10.0 miEast (80°)9.2 mphMostly Cloudy
9:29 AM84.2 °F77.0 °F79 %29.91 in10.0 miENE (70°)10.4 mphMostly Cloudy
9:38 AM82.4 °F77.0 °F84 %29.91 in10.0 miEast (80°)8.1 mphMostly Cloudy
9:49 AM84.2 °F77.0 °F79 %29.90 in10.0 miEast (80°)9.2 mphMostly Cloudy
9:51 AM84.2 °F77.0 °F79 %29.90 in10.0 miEast (80°)9.2 mphScattered Clouds
9:55 AM84.2 °F75.9 °F76 %29.90 in10.0 miENE (70°)10.4 mphScattered Clouds
10:05 AM84.2 °F75.2 °F74 %29.90 in10.0 miENE (70°)9.2 mphMostly Cloudy
10:47 AM84.2 °F75.2 °F74 %29.89 in10.0 miEast (80°)10.4 mphScattered Clouds
10:49 AM84.2 °F75.2 °F74 %29.89 in10.0 miEast (80°)11.5 mphMostly Cloudy
10:51 AM84.2 °F75.2 °F74 %29.89 in10.0 miENE (60°)10.4 mphScattered Clouds
10:55 AM84.9 °F76.5 °F76 %29.89 in10.0 miEast (80°)13.8 mphScattered Clouds
11:15 AM86.0 °F77.0 °F74 %29.88 in10.0 miEast (80°)13.8 mphMostly Cloudy
11:16 AM86.0 °F75.2 °F70 %29.88 in10.0 miEast (80°)13.8 mphScattered Clouds
11:55 AM85.6 °F73.4 °F67 %29.87 in10.0 miNE (50°)12.7 mph17.3 mphClear
12:55 PM86.0 °F74.7 °F69 %29.85 in10.0 miEast (80°)10.4 mphClear
1:55 PM86.5 °F75.4 °F69 %29.84 in10.0 miENE (60°)11.5 mphScattered Clouds
2:22 PM86.0 °F75.2 °F70 %29.83 in10.0 miENE (60°)12.7 mphMostly Cloudy
2:27 PM86.0 °F75.2 °F70 %29.83 in10.0 miENE (60°)11.5 mphScattered Clouds
2:55 PM86.0 °F75.0 °F70 %29.82 in10.0 miNE (50°)15.0 mph19.6 mphScattered Clouds
3:42 PM84.2 °F75.2 °F74 %29.82 in10.0 miENE (70°)12.7 mphMostly Cloudy
3:45 PM84.2 °F75.2 °F74 %29.82 in10.0 miNE (50°)13.8 mphScattered Clouds
3:50 PM84.2 °F75.2 °F74 %29.82 in10.0 miEast (80°)13.8 mphMostly Cloudy
3:55 PM84.6 °F74.8 °F72 %29.82 in10.0 miEast (80°)12.7 mphMostly Cloudy
4:09 PM84.2 °F75.2 °F74 %29.82 in10.0 miENE (60°)15.0 mphLight Drizzle
4:18 PM82.4 °F75.2 °F79 %29.82 in10.0 miENE (60°)15.0 mphMostly Cloudy
4:36 PM84.2 °F75.2 °F74 %29.82 in10.0 miENE (60°)13.8 mphMostly Cloudy
4:55 PM84.2 °F75.2 °F74 %29.82 in10.0 miENE (60°)13.8 mph0.00 inPartly Cloudy
5:55 PM81.9 °F74.8 °F79 %29.84 in10.0 miEast (80°)13.8 mphPartly Cloudy
6:33 PM80.6 °F75.2 °F84 %29.85 in9.0 miENE (60°)15.0 mphRainLight Rain
6:47 PM78.8 °F75.2 °F89 %29.85 in10.0 miEast (90°)9.2 mphPartly Cloudy
6:55 PM78.6 °F73.9 °F85 %29.86 in10.0 miEast (80°)6.9 mph0.00 inPartly Cloudy
7:55 PM79.5 °F74.8 °F86 %29.88 in10.0 miENE (70°)9.2 mphPartly Cloudy
8:55 PM79.9 °F74.8 °F85 %29.89 in10.0 miENE (70°)9.2 mphPartly Cloudy
9:55 PM79.7 °F76.3 °F89 %29.89 in10.0 miENE (70°)12.7 mphPartly Cloudy
9:58 PM78.8 °F75.2 °F89 %29.90 in10.0 miENE (70°)12.7 mphLight Drizzle
10:01 PM78.8 °F75.2 °F89 %29.90 in9.0 miENE (60°)13.8 mphRainRain
10:08 PM77.0 °F73.4 °F89 %29.90 in5.0 miNE (50°)17.3 mphRainLight Rain
10:24 PM77.0 °F73.4 °F89 %29.90 in10.0 miENE (60°)6.9 mphMostly Cloudy
10:55 PM77.4 °F74.3 °F90 %29.89 in10.0 miENE (70°)6.9 mph0.07 inClear
11:55 PM78.6 °F75.6 °F90 %29.87 in10.0 miEast (80°)6.9 mphScattered Clouds
Hourly data recorded from PGUA, located miles away from Achang Bay, Guam







STORIES FROM OUR PARTNERS